Location: Équennes
(49.7375°N, 1.9622°E)
Time: 07:44:00
(UTC+00:00)

Cosmos 1656 - Visible Passes

Search period start: 02 October 2023 00:00
Search period end: 12 October 2023 00:00
Orbit: 799 x 847 km, 71.1° (Epoch: 01 October)

Date Brightness Start Highest point End Pass type
(mag) Time Alt. Az. Time Alt. Az. Time Alt. Az.
02 Oct 5.6 21:21:09 10° NNW 21:23:36 21° N 21:23:36 21° N visible
02 Oct 6.3 23:04:26 10° NNW 23:05:01 13° NW 23:05:01 13° NW visible
03 Oct 5.5 21:00:35 10° NNW 21:03:15 21° NNE 21:03:15 21° NNE visible
03 Oct 6.2 22:43:46 10° NNW 22:44:40 15° NNW 22:44:40 15° NNW visible
04 Oct 5.5 20:40:02 10° N 20:42:56 20° NNE 20:42:56 20° NNE visible
04 Oct 6.1 22:23:06 10° NNW 22:24:20 17° NNW 22:24:20 17° NNW visible
05 Oct 5.4 20:19:28 10° N 20:22:38 20° NNE 20:22:38 20° NNE visible
05 Oct 5.9 22:02:28 10° NNW 22:04:02 20° NNW 22:04:02 20° NNW visible
06 Oct 5.4 19:58:55 10° N 20:02:20 18° NNE 20:02:20 18° NNE visible
06 Oct 5.7 21:41:49 10° NNW 21:43:45 22° NNW 21:43:45 22° NNW visible
07 Oct 5.4 19:38:24 10° N 19:41:53 17° NE 19:42:04 17° NE visible
07 Oct 5.5 21:21:11 10° NNW 21:23:29 25° NNW 21:23:29 25° NNW visible
08 Oct 5.5 19:17:53 10° N 19:21:05 15° NNE 19:21:50 15° NE visible
08 Oct 5.2 21:00:34 10° NNW 21:03:14 28° N 21:03:14 28° N visible
09 Oct 5.5 18:57:24 10° N 19:00:16 14° NNE 19:01:36 13° NE visible
09 Oct 5.0 20:39:57 10° NNW 20:43:01 31° N 20:43:01 31° N visible
09 Oct 6.4 22:23:57 10° NW 22:24:26 12° NW 22:24:26 12° NW visible
10 Oct 5.6 18:36:56 10° N 18:39:27 13° NNE 18:41:24 11° NE visible
10 Oct 4.8 20:19:20 10° NNW 20:22:49 33° N 20:22:49 33° N visible
10 Oct 6.2 22:03:10 10° NW 22:04:14 15° NW 22:04:14 15° NW visible
11 Oct 5.6 18:16:30 10° N 18:18:36 12° NNE 18:20:43 10° NE visible
11 Oct 4.6 19:58:44 10° NNW 20:02:38 34° NNE 20:02:38 34° NNE visible
11 Oct 6.0 21:42:25 10° NW 21:44:03 19° NW 21:44:03 19° NW visible
